TimeCDT,TemperatureF,Dew PointF,Humidity,Sea Level PressureIn,VisibilityMPH,Wind Direction,Wind SpeedMPH,Gust SpeedMPH,PrecipitationIn,Events,Conditions,WindDirDegrees,DateUTC
12:15 AM,44.6,26.6,49,30.22,10.0,NNE,4.6,-,N/A,,Overcast,20,2013-04-03 05:15:00
12:35 AM,44.6,26.6,49,30.21,10.0,NNE,5.8,-,N/A,,Overcast,20,2013-04-03 05:35:00
12:55 AM,44.6,26.6,49,30.20,10.0,NNE,6.9,-,N/A,,Overcast,20,2013-04-03 05:55:00
1:15 AM,42.8,26.6,53,30.20,10.0,NNE,5.8,-,N/A,,Overcast,20,2013-04-03 06:15:00
1:35 AM,42.8,26.6,53,30.20,10.0,North,3.5,-,N/A,,Overcast,10,2013-04-03 06:35:00
1:55 AM,42.8,24.8,49,30.19,10.0,NNE,4.6,-,N/A,,Overcast,20,2013-04-03 06:55:00
2:15 AM,42.8,23.0,46,30.18,10.0,NNE,8.1,-,N/A,,Overcast,20,2013-04-03 07:15:00
2:35 AM,42.8,23.0,46,30.18,10.0,NNE,6.9,-,N/A,,Overcast,20,2013-04-03 07:35:00
2:55 AM,42.8,23.0,46,30.16,10.0,NNE,8.1,-,N/A,,Overcast,20,2013-04-03 07:55:00
3:15 AM,42.8,23.0,46,30.14,10.0,NNE,9.2,-,N/A,,Mostly Cloudy,30,2013-04-03 08:15:00
3:35 AM,42.8,23.0,46,30.16,10.0,NNE,6.9,-,N/A,,Overcast,30,2013-04-03 08:35:00
3:55 AM,42.8,21.2,42,30.15,10.0,NNE,6.9,-,N/A,,Overcast,30,2013-04-03 08:55:00
4:15 AM,42.8,21.2,42,30.15,10.0,NNE,8.1,-,N/A,,Overcast,20,2013-04-03 09:15:00
4:35 AM,42.8,19.4,39,30.16,10.0,NNE,8.1,-,N/A,,Overcast,20,2013-04-03 09:35:00
4:55 AM,42.8,19.4,39,30.17,10.0,NNE,6.9,-,N/A,,Overcast,30,2013-04-03 09:55:00
5:15 AM,42.8,19.4,39,30.17,10.0,NNE,5.8,-,N/A,,Overcast,30,2013-04-03 10:15:00
5:35 AM,42.8,19.4,39,30.18,10.0,NNE,8.1,-,N/A,,Scattered Clouds,20,2013-04-03 10:35:00
5:55 AM,41.0,19.4,42,30.19,10.0,North,5.8,-,N/A,,Scattered Clouds,10,2013-04-03 10:55:00
6:15 AM,41.0,19.4,42,30.19,10.0,NNE,5.8,-,N/A,,Clear,30,2013-04-03 11:15:00
6:35 AM,41.0,19.4,42,30.19,10.0,NNE,5.8,-,N/A,,Clear,20,2013-04-03 11:35:00
6:55 AM,41.0,19.4,42,30.19,10.0,NNE,5.8,-,N/A,,Clear,20,2013-04-03 11:55:00
7:15 AM,41.0,21.2,45,30.20,10.0,NNE,5.8,-,N/A,,Clear,20,2013-04-03 12:15:00
7:35 AM,41.0,21.2,45,30.21,10.0,NNE,5.8,-,N/A,,Clear,30,2013-04-03 12:35:00
7:55 AM,42.8,19.4,39,30.21,10.0,NNE,5.8,-,N/A,,Clear,30,2013-04-03 12:55:00
8:15 AM,42.8,19.4,39,30.20,10.0,NNE,8.1,-,N/A,,Clear,30,2013-04-03 13:15:00
8:35 AM,42.8,21.2,42,30.20,10.0,NNE,6.9,-,N/A,,Clear,30,2013-04-03 13:35:00
8:55 AM,44.6,21.2,39,30.20,10.0,NNE,6.9,-,N/A,,Clear,30,2013-04-03 13:55:00
9:15 AM,44.6,21.2,39,30.21,10.0,NE,6.9,-,N/A,,Clear,40,2013-04-03 14:15:00
9:35 AM,46.4,19.4,34,30.21,10.0,NNE,8.1,-,N/A,,Clear,30,2013-04-03 14:35:00
9:55 AM,48.2,19.4,32,30.21,10.0,NNE,6.9,-,N/A,,Clear,30,2013-04-03 14:55:00
10:15 AM,50.0,17.6,28,30.21,10.0,NNE,5.8,-,N/A,,Mostly Cloudy,30,2013-04-03 15:15:00
10:35 AM,50.0,19.4,30,30.20,10.0,North,6.9,-,N/A,,Overcast,10,2013-04-03 15:35:00
10:55 AM,50.0,19.4,30,30.19,10.0,NNE,5.8,-,N/A,,Scattered Clouds,30,2013-04-03 15:55:00
11:15 AM,51.8,21.2,30,30.20,10.0,NNE,6.9,-,N/A,,Mostly Cloudy,20,2013-04-03 16:15:00
11:35 AM,53.6,19.4,26,30.19,10.0,NNE,6.9,-,N/A,,Scattered Clouds,30,2013-04-03 16:35:00
11:55 AM,53.6,17.6,24,30.19,10.0,NNE,8.1,-,N/A,,Mostly Cloudy,20,2013-04-03 16:55:00
12:15 PM,53.6,17.6,24,30.18,10.0,NE,8.1,-,N/A,,Overcast,40,2013-04-03 17:15:00
12:35 PM,55.4,19.4,25,30.18,10.0,NNE,6.9,-,N/A,,Overcast,30,2013-04-03 17:35:00
12:55 PM,53.6,17.6,24,30.19,10.0,NNE,5.8,-,N/A,,Overcast,30,2013-04-03 17:55:00
1:15 PM,53.6,17.6,24,30.20,10.0,North,3.5,-,N/A,,Overcast,10,2013-04-03 18:15:00
1:35 PM,53.6,19.4,26,30.19,10.0,NNE,3.5,-,N/A,,Overcast,20,2013-04-03 18:35:00
1:55 PM,55.4,19.4,25,30.19,10.0,NNE,3.5,-,N/A,Rain,Light Rain,30,2013-04-03 18:55:00
2:15 PM,55.4,23.0,29,30.19,10.0,Calm,Calm,-,N/A,Rain,Light Rain,0,2013-04-03 19:15:00
2:35 PM,55.4,19.4,25,30.19,10.0,NNW,3.5,-,N/A,Rain,Light Rain,340,2013-04-03 19:35:00
2:55 PM,55.4,19.4,25,30.19,10.0,South,3.5,-,N/A,,Light Drizzle,180,2013-04-03 19:55:00
3:15 PM,53.6,19.4,26,30.17,10.0,Calm,Calm,-,N/A,,Light Drizzle,0,2013-04-03 20:15:00
3:35 PM,53.6,21.2,28,30.17,10.0,Calm,Calm,-,N/A,,Drizzle,0,2013-04-03 20:35:00
3:55 PM,53.6,26.6,35,30.16,10.0,North,4.6,-,N/A,,Drizzle,10,2013-04-03 20:55:00
4:15 PM,55.4,26.6,33,30.15,10.0,NE,5.8,-,N/A,Rain,Rain,50,2013-04-03 21:15:00
4:35 PM,53.6,23.0,30,30.14,10.0,NNE,4.6,-,N/A,Rain,Light Rain,30,2013-04-03 21:35:00
4:55 PM,53.6,26.6,35,30.14,10.0,NNE,5.8,-,N/A,Rain,Light Rain,30,2013-04-03 21:55:00
5:15 PM,53.6,24.8,33,30.13,10.0,NNE,4.6,-,N/A,Rain,Light Rain,20,2013-04-03 22:15:00
5:35 PM,53.6,23.0,30,30.13,10.0,NNE,4.6,-,N/A,,Scattered Clouds,30,2013-04-03 22:35:00
5:55 PM,53.6,23.0,30,30.13,10.0,NNE,4.6,-,N/A,,Clear,30,2013-04-03 22:55:00
6:15 PM,53.6,21.2,28,30.13,10.0,Calm,Calm,-,N/A,,Clear,0,2013-04-03 23:15:00
6:35 PM,53.6,21.2,28,30.14,10.0,Calm,Calm,-,N/A,,Clear,0,2013-04-03 23:35:00
6:55 PM,53.6,21.2,28,30.14,10.0,Calm,Calm,-,N/A,,Clear,0,2013-04-03 23:55:00
7:15 PM,53.6,23.0,30,30.14,10.0,Calm,Calm,-,N/A,,Clear,0,2013-04-04 00:15:00
7:35 PM,51.8,28.4,41,30.14,10.0,Calm,Calm,-,N/A,,Mostly Cloudy,0,2013-04-04 00:35:00
7:55 PM,51.8,26.6,38,30.14,10.0,Calm,Calm,-,N/A,,Overcast,0,2013-04-04 00:55:00
8:15 PM,51.8,28.4,41,30.13,10.0,Calm,Calm,-,N/A,,Mostly Cloudy,0,2013-04-04 01:15:00
8:35 PM,50.0,32.0,50,30.13,10.0,Calm,Calm,-,N/A,,Scattered Clouds,0,2013-04-04 01:35:00
8:55 PM,50.0,30.2,47,30.12,10.0,ESE,3.5,-,N/A,,Clear,120,2013-04-04 01:55:00
9:15 PM,50.0,32.0,50,30.13,10.0,South,3.5,-,N/A,,Scattered Clouds,170,2013-04-04 02:15:00
9:35 PM,48.2,32.0,54,30.13,10.0,Calm,Calm,-,N/A,,Mostly Cloudy,0,2013-04-04 02:35:00
9:55 PM,48.2,33.8,58,30.13,10.0,Calm,Calm,-,N/A,,Scattered Clouds,0,2013-04-04 02:55:00
10:15 PM,50.0,32.0,50,30.13,10.0,SSE,4.6,-,N/A,,Light Drizzle,150,2013-04-04 03:15:00
10:35 PM,48.2,32.0,54,30.14,10.0,South,4.6,-,N/A,Rain,Light Rain,170,2013-04-04 03:35:00
10:55 PM,46.4,33.8,62,30.13,10.0,Calm,Calm,-,N/A,Rain,Light Rain,0,2013-04-04 03:55:00
11:15 PM,46.4,33.8,62,30.14,10.0,Calm,Calm,-,N/A,,Drizzle,0,2013-04-04 04:15:00
11:35 PM,46.4,33.8,62,30.14,10.0,South,3.5,-,N/A,Rain,Light Rain,170,2013-04-04 04:35:00
11:55 PM,46.4,33.8,62,30.14,10.0,SSE,3.5,-,N/A,,Overcast,160,2013-04-04 04:55:00